Tracking 19832 objects as of 25-Aug-2019
HD Live streaming from Space Station
objects crossing your sky now

COSMOS 2251 DEB

Track COSMOS 2251 DEB now!
10-day predictions


NORAD ID: 37313
Int'l Code: 1993-036BKD
Perigee: 657.1 km
Apogee: 669.9 km
Inclination: 74.0 °
Period: 97.9 minutes
Semi major axis: 7034 km
RCS: 0.0041 m2 (small)
Launch date: June 16, 1993
Source: Commonwealth of Independent States (former USSR) (CIS)
Launch site: PLESETSK MISSILE AND SPACE COMPLEX (PKMTR)

Note: This is SATELLITE DEBRIS
aabbcc
Your satellite tracking list
Your tracking list is empty




NASA's NSSDC Master Catalog

Two Line Element Set (TLE):
1 37313U 93036BKD 14273.96825406 +.00039486 +00000-0 +63282-2 0  9998
2 37313 074.0319 160.7502 0009076 166.3639 193.7780 14.71482391657306
Source of the keplerian elements: AFSPC